Find Starlink 34956

NORAD ID: 65174 Int'l Des: 2025-175 Owner: SPXS Country: US Constellation: starlink operational
LEOCIRCULARRETROGRADESSO

Live-Position

3D-Globus wird geladen...

Über Starlink 34956

Beschreibung wird geladen...

Nächste Überflüge

Passes for default location (London). Set your location on the main map for personalized predictions.

Höhenverlauf

Loading altitude history...

Zweizeiliger Elementsatz

1 65174U 25175A 26106.89072015 .00003349 00000-0 23616-3 0 9990
2 65174 97.6037 340.2317 0003242 77.4919 282.6670 15.05654259 38357
Epoch: 16. Apr. 2026 • Age: 15 hours

Aktueller Status

Höhe 554.6 km
Geschwindigkeit 7.59 km/s
Subsatellitenpunkt 45.72°N, 51.66°W
Startdatum 14. Aug. 2025
Alter 0.6 years
Typ internet

Technische Details

Klassifizierung Payload
Masse 575.00 kg
Trockenmasse 530.00 kg
Gesamtmasse 575.00 kg
Länge 0.30 m
Durchmesser 4.10 m
Spannweite 29.00 m
Form Box + pan
Hersteller SPXS
Bus-Typ Starlink V2MO
Phasenstatus In Orbit
Besitzer/Staat SPXS/US

Most Searched